Location: Paimpol
(48.7798°N, 3.0488°W)
Time: 15:40:35
(UTC+01:00)

Envisat - Visible Passes

Search period start: 30 November 2021 00:00
Search period end: 10 December 2021 00:00
Orbit: 764 x 766 km, 98.2° (Epoch: 29 November)

Date Brightness Start Highest point End Pass type
(mag) Time Alt. Az. Time Alt. Az. Time Alt. Az.
30 Nov 4.4 05:42:19 10° NNE 05:47:04 38° E 05:51:46 10° SSE visible
30 Nov 3.6 07:21:30 10° N 07:26:01 33° WNW 07:30:32 10° SW visible
30 Nov 5.9 18:41:52 10° SW 18:45:09 17° W 18:48:25 10° NW visible
01 Dec 5.5 05:06:17 10° NE 05:09:52 19° E 05:13:26 10° SE visible
01 Dec 2.9 06:44:18 10° N 06:49:22 66° WNW 06:54:23 10° SSW visible
01 Dec 4.9 18:03:19 10° SSW 18:07:54 34° W 18:12:32 10° NNW visible
02 Dec 3.4 06:07:26 10° NNE 06:12:29 63° E 06:17:31 10° S visible
02 Dec 4.1 07:47:15 10° N 07:51:05 22° WNW 07:54:54 10° WSW visible
03 Dec 4.7 05:30:56 10° NNE 05:35:26 31° E 05:39:54 10° SSE visible
03 Dec 3.3 07:09:48 10° N 07:14:33 41° WNW 07:19:16 10° SW visible
03 Dec 5.7 18:29:39 10° SW 18:33:27 21° W 18:37:17 10° NW visible
04 Dec 5.8 04:55:13 10° NE 04:58:10 15° E 05:01:06 10° ESE visible
04 Dec 2.9 06:32:42 10° NNE 06:37:49 81° WNW 06:42:53 10° SSW visible
04 Dec 4.5 17:51:28 10° SSW 17:56:17 42° W 18:01:06 10° NNW visible
05 Dec 3.8 05:55:56 10° NNE 06:00:54 50° E 06:05:49 10° S visible
05 Dec 3.9 07:35:28 10° N 07:39:39 26° WNW 07:43:48 10° WSW visible
05 Dec 6.1 18:56:55 10° WSW 18:59:06 13° W 19:01:17 10° WNW visible
06 Dec 5.1 05:19:36 10° NE 05:23:47 25° E 05:27:55 10° SSE visible
06 Dec 3.1 06:58:08 10° N 07:03:03 50° WNW 07:07:56 10° SW visible
06 Dec 5.4 18:17:34 10° SSW 18:21:46 26° W 18:26:01 10° NW visible
07 Dec 6.0 04:44:28 10° ENE 04:46:26 12° E 04:48:24 10° ESE visible
07 Dec 3.0 06:21:09 10° NNE 06:26:16 83° ESE 06:31:21 10° SSW visible
07 Dec 4.4 08:01:24 10° NNW 08:04:40 17° WNW 08:07:54 10° W visible
08 Dec 4.2 05:44:28 10° NNE 05:49:17 40° E 05:54:03 10° SSE visible
08 Dec 3.7 07:23:44 10° N 07:28:12 32° WNW 07:32:38 10° SW visible
08 Dec 5.9 18:44:19 10° SW 18:47:22 16° W 18:50:27 10° NW visible
09 Dec 5.4 05:08:21 10° NE 05:12:06 20° E 05:15:49 10° SE visible
09 Dec 2.9 06:46:30 10° N 06:51:32 62° WNW 06:56:32 10° SSW visible
09 Dec 5.0 18:05:36 10° SSW 18:10:07 32° W 18:14:40 10° NNW visible
